Погода в Буке

Польша     52°21′09″N   16°31′06″E
темп.,
°C
ветер,
м/с
пор.,
м/с
влажн.,
%
обл.,
%
осадки,
мм/ч
давл.,
гПа
погр.,
м
29 июля, чт
чт2923:00+17зюз49920 0.0 1011173
02:00+16юз39950 0.0 1012177
05:00+15зюз410953 0.0 1011220
08:00+20зюз69733 0.0 1012487
11:00+24зюз8104625 0.0 10122069
14:00+26зюз8103323 0.0 10112701
17:00+23з7104375 0.0 10111587
20:00+21з58528 0.0 1011371
30 июля, пт
пт3023:00+16юз48655 0.0 1012143
02:00+17юз496215 0.0 1011256
05:00+14зюз35765 0.0 101173
08:00+18зюз46595 0.0 1011384
11:00+23зюз69425 0.0 10101745
14:00+26зюз8935100 0.0 10091988
17:00+26з6836100 0.0 10081927
20:00+22з334911 0.0 100735
31 июля, сб
сб3123:00+18зсз11615 0.0 100811
02:00+17ююв2263100 0.0 100717
05:00+17ю3463100 0.0 100656
08:00+20зюз71068100 0.0 1007506
11:00+24зюз7946100 0.1 10071711
14:00+26зюз810335 0.1 10062356
17:00+26зюз912326 0.0 10062589
20:00+22з711435 0.0 1007791
1 августа, вс
вс123:00+17зюз411590 0.0 1008231
02:00+15зюз487199 0.0 1008143
05:00+14зюз3779100 0.0 1008133
08:00+17зюз3568100 0.0 1009371
11:00+21з4553100 0.0 10081106
14:00+20зюз4554100 0.1 10091212
17:00+18з236885 0.0 1009342
20:00+18ююз336893 0.1 100844
2 августа, пн
пн223:00+15юз358496 0.0 100972
02:00+16з3682100 0.1 1008144
05:00+14з3482100 0.0 100975
08:00+16зюз367199 0.0 1009273
11:00+21з565671 0.3 10091501
14:00+22з6754100 1.9 10101773
17:00+21з576016 1.6 10101365
20:00+18з376689 2.2 1011176